www.pogodaiklimat.ru

Погода и климат >> Архив погоды >> Бангладеш >> Чуаданга


ПОГОДА в Чуаданге

  • Прогноз погоды в Чуаданге
  • Монитор погоды в Чуаданге

АРХИВ ПОГОДЫ в Чуаданге

Время (UTC), дата Ветер
(напр.,м/с)
 
Видим.   Явления Облачность Т
(С)
Тd
(С)
f
(%)
Тe
(С)
Тes
(С)
Комфортность P
(гПа)
Po
(гПа)
Тmin
(С)
Tmax
(С)
R
(мм)
R24
(мм)
S
(см)
15 16.09 штиль 0 5000 м мгла 1/1 540 м
[Sc]
+28.8 +27.0 90 +45 +45 опасность
перегрева
1004.9 1003.6
18 16.09 Ю 1 5000 м мгла 4/0
[As trans]
+28.2 +26.0 88 +42 +42 опасность
перегрева
1005.2 1003.9
21 16.09 штиль 0 5000 м мгла 1/1 540 м
[Sc]
+27.5 +27.0 97 +43 +43 опасность
перегрева
1005.4 1004.1
00 17.09 Ю 1 5000 м мгла 1/1 540 м
[Sc]
+26.8 +26.0 95 +40 +40 очень
душно
1005.7 1004.4
03 17.09 Ю 1 6000 м 5/5 540 м
[Sc diur, vesp]
+29.8 +26.0 80 +45 +50 опасность
перегрева
1007.5 1006.2 +26.7
06 17.09 Ю 2 7000 м 8/4 540 м
[Sc diur, vesp Ci sp]
+33.0 +26.0 67 +49 +59 опасность
перегрева
1007.2 1005.9
09 17.09 Ю 1 7000 м 6/6 540 м
[Sc diur, vesp]
+33.5 +27.0 69 +52 +56 опасность
перегрева
1004.9 1003.6
12 17.09 Ю 1 6000 м 1/0
[Ci fib]
+30.5 +26.0 77 +46 +46 опасность
перегрева
1005.1 1003.8 +34.5
15 17.09 штиль 0 5000 м ясно +28.2 +26.0 88 +42 +42 опасность
перегрева
1006.9 1005.5
18 17.09 штиль 0 5000 м 1/0
[Ac trans]
+27.2 +25.0 88 +39 +39 очень
душно
1007.3 1005.9
00 18.09 штиль 0 5000 м мгла ясно +25.2 +24.0 93 +35 +35 очень
душно
1007.7 1006.4
03 18.09 штиль 0 6000 м 1/0
[Ci fib]
+30.8 +25.0 71 +44 +56 опасность
перегрева
1010.4 1009.1 +25.2
06 18.09 Ю 2 7000 м 5/4 540 м
[Sc diur, vesp Ci fib]
+34.4 +22.0 49 +43 +55 опасность
перегрева
1009.7 1008.4
09 18.09 Ю 2 7000 м 1/0
[Ci fib]
+35.0 +24.0 53 +47 +57 опасность
перегрева
1007.4 1006.1
12 18.09 Ю 3 5000 м слаб. дождь 10/3 500 м
[Cb calv As op]
+31.0 +25.0 70 +44 +44 опасность
перегрева
1007.8 1006.5 +36.0 14
15 18.09 штиль 0 5000 м {дождь} 8/4 500 м
[Sc As trans]
+26.0 +22.0 79 +34 +34 очень
душно
1009.7 1008.4
18 18.09 штиль 0 5000 м {дождь} 6/1 540 м
[Sc Ac trans]
+26.0 +25.0 94 +37 +37 очень
душно
1009.6 1008.2 22
00 19.09 штиль 0 5000 м мгла 1/0
[Ci fib]
+25.2 +24.0 93 +35 +35 очень
душно
1009.6 1008.4
03 19.09 штиль 0 6000 м 3/3 540 м
[Sc]
+30.0 +26.0 79 +45 +53 опасность
перегрева
1010.9 1009.5 +24.5
06 19.09 штиль 0 6000 м 5/5 540 м
[Sc diur, vesp]
+33.6 +25.0 61 +47 +60 опасность
перегрева
1010.1 1008.8
09 19.09 Ю 1 6000 м 6/6 540 м
[Sc diur, vesp]
+34.5 +25.0 58 +48 +53 опасность
перегрева
1007.3 1006.0
12 19.09 штиль 0 5000 м 3/3 540 м
[Sc]
+31.0 +28.0 84 +51 +51 опасность
перегрева
1007.1 1005.8 +35.4
15 19.09 штиль 0 5000 м 3/3 540 м
[Sc]
+28.2 +27.0 93 +44 +44 опасность
перегрева
1009.5 1008.2
18 19.09 штиль 0 5000 м 3/3 540 м
[Sc]
+27.5 +26.0 92 +41 +41 опасность
перегрева
1009.4 1008.0
00 20.09 штиль 0 5000 м мгла 3/0
[Ci]
+26.0 +25.0 94 +37 +37 очень
душно
1009.0 1007.7
03 20.09 штиль 0 6000 м 3/0
[Ci]
+30.0 +25.0 75 +43 +54 опасность
перегрева
1010.3 1008.9 +26.0
06 20.09 ЮВ 1 7000 м 4/4 540 м
[Sc diur, vesp]
+34.0 +24.0 56 +46 +60 опасность
перегрева
1009.3 1008.0
09 20.09 З 1 7000 м 4/4 540 м
[Sc diur, vesp]
+35.5 +25.0 55 +49 +56 опасность
перегрева
1005.6 1004.3
12 20.09 Ю 1 6000 м 6/6 540 м
[Sc diur, vesp]
+31.5 +27.0 77 +49 +49 опасность
перегрева
1005.4 1004.1 +36.0
15 20.09 штиль 0 5000 м 3/3 540 м
[Sc]
+28.0 +26.0 89 +42 +42 опасность
перегрева
1008.1 1006.7
18 20.09 штиль 0 5000 м мгла ясно +27.5 +27.0 97 +43 +43 опасность
перегрева
1008.3 1006.9
00 21.09 штиль 0 5000 м мгла ясно +27.0 +26.0 94 +40 +40 очень
душно
1007.5 1006.2
03 21.09 З 1 6000 м мгла ясно +30.6 +27.0 81 +48 +59 опасность
перегрева
1008.9 1007.6 +26.4
06 21.09 штиль 0 7000 м 5/5 540 м
[Sc diur, vesp]
+34.0 +26.0 63 +50 +62 опасность
перегрева
1007.9 1006.6
09 21.09 штиль 0 6000 м 8/4 540 м
[Cb calv As trans]
+33.5 +27.0 69 +52 +56 опасность
перегрева
1004.9 1003.6
12 21.09 штиль 0 5000 м {гроза, дождь} 8/4 540 м
[Cb calv As trans]
+25.8 +24.0 90 +36 +36 очень
душно
1005.9 1004.6 +36.2 0.0
15 21.09 штиль 0 5000 м мгла ясно +25.8 +25.0 95 +37 +37 очень
душно
1007.5 1006.2
18 21.09 штиль 0 5000 м мгла ясно +25.5 +25.0 97 +36 +36 очень
душно
1008.5 1007.2
21 21.09 штиль 0 5000 м мгла ясно +25.2 +24.0 93 +35 +35 очень
душно
1008.6 1007.2
00 22.09 штиль 0 5000 м мгла 3/3 540 м
[Sc]
+25.0 +24.0 94 +34 +34 очень
душно
1008.5 1007.2
03 22.09 штиль 0 6000 м мгла ясно +29.6 +25.0 76 +42 +54 опасность
перегрева
1010.3 1009.0 +25.0
06 22.09 Ю 1 6000 м 6/6 540 м
[Sc diur, vesp]
+33.5 +25.0 61 +47 +56 опасность
перегрева
1009.4 1008.1
09 22.09 Ю 1 6000 м 6/6 540 м
[Sc diur, vesp]
+34.6 +26.0 61 +50 +55 опасность
перегрева
1006.7 1005.4
12 22.09 Ю 1 5000 м в посл. час гроза 8/4 540 м
[Cb calv As trans]
+28.0 +26.0 89 +42 +42 опасность
перегрева
1007.6 1006.3 +35.0 1
15 22.09 штиль 0 5000 м гроза, ливневой дождь 10/5 480 м
[Cb calv As op]
+24.7 +24.0 96 +34 +34 очень
душно
1010.7 1009.4
18 22.09 штиль 0 5000 м {гроза, дождь} 9/4 500 м
[Sc As trans]
+25.4 +24.0 92 +35 +35 очень
душно
1010.5 1009.2 49
00 23.09 штиль 0 5000 м 3/3 540 м
[Sc]
+25.4 +24.0 92 +35 +35 очень
душно
1010.8 1009.5
03 23.09 ЮЗ 1 6000 м 3/0 300 м
[Ci fib]
+29.6 +26.0 81 +44 +54 опасность
перегрева
1012.0 1010.6 +24.3
06 23.09 Ю 1 6000 м 5/5 540 м
[Sc diur, vesp]
+32.7 +25.0 64 +46 +58 опасность
перегрева
1011.5 1010.2
09 23.09 Ю 1 6000 м 10/5 500 м
[Cb calv As op]
+31.3 +25.0 69 +45 +46 опасность
перегрева
1009.1 1007.8
12 23.09 штиль 0 5000 м 9/4 540 м
[Cb calv As trans]
+27.7 +25.0 85 +40 +40 очень
душно
1009.0 1007.7 +33.4

 

Местоположение метеостанции Чуаданга (Бангладеш): широта 23.65 долгота 88.82 высота над уровнем моря 12 м.

В архиве по умолчанию представлена погода в Чуаданге за последнюю неделю. Архивные данные за месяц целиком и за предыдущие месяцы, начиная с января 2011 года, Вы можете получить, выбрав интересующий диапазон дат из раскрывающегося списка и нажав кнопку "Ввод!".


*Определитесь, кто Вы:
робот инопланетянин человек

Внимание! Время в таблицах - всемирное. Для получения местного времени необходимо прибавить поправку, которая равна 6.5 ч.

Смотрите также архив погоды в соседних городах и на ближайших метеорологических станциях:

Погода в Кумархали (Бангладеш) (37 км)
Погода в Кришнанагаре (Западная Бенгалия, Индия) (41 км)
Погода в Ишварди (Бангладеш) (58 км)
Погода в Джессоре (Бангладеш) (63 км)
Погода в Бахарампуре (Западная Бенгалия, Индия) (77 км)
Погода в Тараше (Бангладеш) (80 км)
Погода в Раджшахи (Бангладеш) (81 км)
Погода в Багати (Западная Бенгалия, Индия) (88 км)
Погода в Фаридпуре (Бангладеш) (105 км)
Погода в Саткхире (Бангладеш) (107 км)

Пояснения к столбцам:

Ветер - указаны скорость ветра в м/с - средняя за 10 мин, порывы в срок и между сроками (в фигурных скобках) и направление, откуда дует ветер: С - северный, СВ - северо-восточный, В - восточный, ЮВ - юго-восточный, Ю - южный, ЮЗ - юго-западный, З - западный, СЗ - северо-западный.
Видимость - горизонтальная дальность видимости в метрах или километрах. При видимости от 1 до 10 км при отсутствии осадков обычно наблюдается дымка, при ухудшении видимости до 1 км и менее - туман. В сухую погоду видимость может ухудшаться дымом, пылью или мглою.
Явления - указаны атмосферные явления, наблюдавшиеся в срок или в последний час перед сроком; фигурными скобками обозначены явления, наблюдавшиеся между сроками (за 1-3 часа до срока); квадратными скобками обозначены град или гололедные отложения с указанием их диаметра в мм.
Облачность - указаны через наклонную черту общая и нижняя облачность в баллах и высота нижней границы облаков в метрах; квадратными скобками обозначены формы облаков: Ci - перистые, Cs - перисто-слоистые, Cc - перисто-кучевые, Ac - высококучевые, As - высокослоистые, Sc - слоисто-кучевые, Ns - слоисто-дождевые, Cu - кучевые, Cb - кучево-дождевые. Подробнее классификацию облаков см. в Атласе облаков (PDF).
T - Температура воздуха - температура, измеренная на высоте 2 м над землей.
Td - Температура точки росы - температура, при понижении до которой содержащийся в воздухе водяной пар достигнет насыщения.
f - Относительная влажность воздуха - влажноcть воздуха, измеренная на высоте 2 м над землей.
Te - Эффективная температура - температура, которую ощущает одетый по сезону человек в тени. Характеристика душности погоды. При расчете учитывается влияние влажности воздуха и скорости ветра на теплоощущения человека.
Tes - Эффективная температура на солнце - температура, которую ощущает человек, с поправкой на солнечный нагрев. Характеристика знойности погоды. Зависит от высоты солнца над горизонтом, облачности и скорости ветра. Ночью, в пасмурную погоду, а также при ветре 12 м/с и более поправка равна нулю.
P - Атмосферное давление - приведенное к уровню моря атмосферное давление.
Po - Атмосферное давление - измеренное на уровне метеостанции атмосферное давление.
Tmin - Минимальная температура - минимум температуры воздуха на высоте 2 м над землей.
Tmax - Максимальная температура - максимум температуры воздуха на высоте 2 м над землей.
R - Количество осадков - Количество выпавших осадков за период времени, мм. При наведении курсора мыши на число - период времени, за который выпало указанное количество осадков.
R24 - Количество осадков - Количество выпавших осадков за 24 часа, мм.
S - Снежный покров - Высота снежного покрова, см. При наведении курсора мыши на число - состояние снежного покрова и степень покрытия местности в баллах.